Find Starlink 5452

NORAD ID: 54772 Int'l Des: 2022-175 Owner: SPXS Country: US Constellation: starlink operational
LEOCIRCULAR

当前视图

正在加载3D地球...

About Starlink 5452

Starlink 5452 (NORAD 54772) is a starlink constellation satellite (v1.5) launched Dec 17, 2022 by SPXS of US. It operates in LEO, CIRCULAR orbit with a mass of 305.00 kg.

关于 Starlink 5452

正在加载描述...

即将过境

Passes for default location (London). Set your location on the main map for personalized predictions.

高度历史

Loading altitude history...

两行轨道根数

1 54772U 22175Q 26170.60758434 .00001564 00000-0 11635-3 0 9990
2 54772 53.1601 291.6244 0001318 93.1347 266.9795 15.08840707195516
Epoch: Jun 19, 2026 • Age: 33 hours

当前状态

高度 539.9 km
速度 7.60 km/s
星下点 18.98°N, 29.91°E
发射日期 Dec 17, 2022
运行时间 3.5 years
类型 internet

技术详情

分类 Payload
质量 305.00 kg
干质量 290.00 kg
总质量 305.00 kg
长度 0.20 m
直径 2.80 m
跨度 9.00 m
形状 Box + pan
制造商 SPXS
平台类型 Starlink
阶段状态 In Orbit
所有者/国家 SPXS/US

Most Searched